Regional Weather Roundup
Issued by NWS Albany, NY

Home | Current Version | Previous Version | Text Only | Print | Product List | Glossary Off
Versions: 1 2 3 4 5 6 7 8 9 10 11 12 13 14 15 16 17 18 19 20 21 22 23 24 25 26 27 28 29 30 31 32 33 34 35 36 37 38 39 40 41 42 43 44 45 46 47 48 49 50

000
ASUS41 KALY 192210
RWRALY

NEW YORK STATE HOURLY WEATHER ROUNDUP
NATIONAL WEATHER SERVICE ALBANY NY
600 PM EDT THU APR 19 2018

NOTE: "FAIR" INDICATES FEW OR NO CLOUDS BELOW 12,000 FEET WITH NO
SIGNIFICANT WEATHER AND/OR NO OBSTRUCTIONS TO VISIBILITY.

NYZ032-033-038>043-046>054-057>066-NYZ062>081-082-084-192300-
EAST


CITY           SKY/WX    TMP DP  RH WIND       PRES   REMARKS
ALBANY         CLOUDY    41  25  53 W21G31    29.82R
GLENS FALLS    CLOUDY    41  23  48 N16       29.80R
POUGHKEEPSIE   CLOUDY    43  27  53 NW10      29.82R
NEWBURGH       PTSUNNY   43  28  56 NW23G31   29.82R
MONTGOMERY     CLOUDY    43  27  53 NW10G22   29.82R
WHITE PLAINS   PTSUNNY   42  33  70 NW21G26   29.80R
ISLIP          CLOUDY    43  39  86 W10       29.80R
NEW YORK CITY  PTSUNNY   46  30  53 NW25G33   29.82R
CENTRAL PARK   CLOUDY    46  29  51 NW9G20    29.85R
$$

NYZ005>009-017-018-044>046-055-056-192300-
CENTRAL


CITY           SKY/WX    TMP DP  RH WIND       PRES   REMARKS
FULTON         LGT SNOW  33  30  88 W12       29.96R VSB 3/4 WCI  24
SYRACUSE       LGT SNOW  33  33 100 NW10      29.95R FOG     WCI  25
ROME           CLOUDY    36  29  75 W22G28    29.91R WCI  25
ELMIRA         FLURRIES  37  28  70 NW16G25   29.96R WCI  28
BINGHAMTON     LGT SNOW  31  27  85 NW12      29.88R FOG     WCI  22
MONTICELLO     LGT RAIN  35  24  64 W21G30    29.84R WCI  24
$$

NYZ026>034-041>043-087-192300-
NORTH


CITY           SKY/WX    TMP DP  RH WIND       PRES   REMARKS
WATERTOWN      CLOUDY    36  27  69 NW14      29.93R WCI  27
FORT DRUM      NOT AVBL
OGDENSBURG     PTSUNNY   36  28  73 NW7       29.91R WCI  30
MASSENA        CLOUDY    39  26  59 NW13      29.88R WCI  31
SARANAC LAKE   FLURRIES  30  25  81 VRB3      29.77R
PLATTSBURGH    CLOUDY    39  29  67 NW13      29.81R WCI  31
$$

NYZ001>004-010>016-019>021-085-192300-
WEST


CITY           SKY/WX    TMP DP  RH WIND       PRES   REMARKS
NIAGARA FALLS  CLOUDY    38  24  57 NW13G25   30.06R WCI  30
BUFFALO        CLOUDY    36  24  62 NW18G28   30.05R WCI  26
DUNKIRK        CLOUDY    38  26  62 W16G23    30.09R WCI  29
JAMESTOWN      CLOUDY    32  25  75 NW22      30.03R WCI  19
WELLSVILLE     FLURRIES  32  25  75 NW20G29   29.96R WCI  20
ROCHESTER      LGT SNOW  34  31  88 NW13      30.02R FOG     WCI  25
PENN YAN       LGT SNOW  33  26  75 NW10G18   29.98R WCI  25
$$

             KEY
       WCI = WIND CHILL INDEX
       VSB = VISIBILITY
       HX  = HEAT INDEX
$$



USA.gov is the U.S. government's official web portal to all federal, state and local government web resources and services.